Aurora, IL

5:48 AM CDT on June 25, 2017 (GMT -0500)
Aurora Municipal

Weather History for KARR - March, 2013

Change the Weather History Date:

Tuesday, March 5, 2013

  Actual Average Record
Temperature  
Mean Temperature 30 °F 32 °F  
Max Temperature 32 °F 42 °F 69 °F (2000)
Min Temperature 27 °F 23 °F -6 °F (2015)
Degree Days  
Heating Degree Days 35 33  
Month to date heating degree days 213 169  
Since 1 July heating degree days 5042 5307  
Cooling Degree Days 0 0  
Month to date cooling degree days 0 0  
Year to date cooling degree days 0 0  
Moisture  
Dew Point 28 °F    
Average Humidity 86    
Maximum Humidity 100    
Minimum Humidity 72    
Precipitation  
Precipitation 0.37 in 0.07 in 0.46 in (2004)
Month to date precipitation T 0.34  
Year to date precipitation 4.87 3.43  
Sea Level Pressure  
Sea Level Pressure 29.89 in    
Wind  
Wind Speed 13 mph (NE)    
Max Wind Speed 24 mph    
Max Gust Speed 30 mph    
Visibility 2 miles    
Events Fog , Snow    
T = Trace of Precipitation, MM = Missing Value Source: NWS Daily Summary

Daily Weather History Graph

Daily Weather History Graph

Search for Another Location

Airport or City:

Trip Planner

Search our weather history database for the weather conditions in past years. The results will help you decide how hot, cold, wet, or windy it might be!

Date:

Astronomy

Mar. 05, 2013 Rise Set
Actual Time 6:21 AM CST 5:49 PM CST
Civil Twilight 5:54 AM CST 6:17 PM CST
Nautical Twilight 5:21 AM CST 6:49 PM CST
Astronomical Twilight 4:49 AM CST 7:21 PM CST
Moon 1:37 AM CST (3/5) 11:24 AM CST (3/5)
Length of Visible Light 12h 23m
Length of Day
11h 27m
Last Quarter, 40% of the Moon is Illuminated
Mar 5
Last Quarter
Mar 11
New
Mar 19
First Quarter
Mar 27
Full
Apr 2
Last Quarter

Hourly Weather History & Observations

Time (CST) Temp. Windchill Dew Point Humidity Pressure Visibility Wind Dir Wind Speed Gust Speed Precip Events Conditions
1:52 AM 32.0 °F 22.5 °F 27.0 °F 82% 29.96 in 9.0 mi East 12.7 mph - N/A   Overcast
2:52 AM 32.0 °F 21.6 °F 27.0 °F 82% 29.94 in 8.0 mi ENE 15.0 mph - N/A   Overcast
3:52 AM 32.0 °F 20.8 °F 28.0 °F 85% 29.91 in 7.0 mi East 17.3 mph - N/A   Overcast
4:25 AM 32.0 °F 22.1 °F 28.4 °F 87% 29.89 in 7.0 mi ENE 13.8 mph - N/A   Overcast
4:38 AM 32.0 °F 22.1 °F 28.4 °F 87% 29.89 in 1.8 mi East 13.8 mph - 0.00 in Snow Light Snow
4:52 AM 30.9 °F 21.2 °F 28.9 °F 92% 29.91 in 1.8 mi ENE 12.7 mph - 0.00 in Snow Light Snow
5:11 AM 30.2 °F 21.3 °F 28.4 °F 93% 29.88 in 3.0 mi ENE 10.4 mph - 0.00 in Snow Light Snow
5:40 AM 30.2 °F 20.8 °F 30.2 °F 100% 29.88 in 3.0 mi East 11.5 mph - 0.00 in Snow Light Snow
5:52 AM 30.9 °F 21.7 °F 30.0 °F 96% 29.90 in 3.0 mi East 11.5 mph - 0.00 in Snow Light Snow
6:16 AM 30.2 °F 21.3 °F 28.4 °F 93% 29.87 in 2.5 mi ENE 10.4 mph - 0.00 in Snow Light Snow
6:52 AM 30.9 °F 22.8 °F 28.9 °F 92% 29.89 in 2.5 mi East 9.2 mph - 0.00 in Snow Light Snow
7:18 AM 30.2 °F 24.3 °F 28.4 °F 93% 29.88 in 1.5 mi East 5.8 mph - 0.00 in Snow Light Snow
7:38 AM 30.2 °F 25.4 °F 30.2 °F 100% 29.88 in 0.8 mi ENE 4.6 mph - 0.00 in Snow Light Snow
7:52 AM 30.9 °F 27.5 °F 30.0 °F 96% 29.91 in 0.5 mi ENE 3.5 mph - 0.00 in Fog , Snow Snow
8:09 AM 30.2 °F 25.4 °F 30.2 °F 100% 29.88 in 0.2 mi ENE 4.6 mph - 0.00 in Fog , Snow Heavy Snow
8:52 AM 30.9 °F 22.8 °F 30.0 °F 96% 29.89 in 0.5 mi ENE 9.2 mph - 0.00 in Fog , Snow Snow
9:25 AM 30.2 °F 21.3 °F 30.2 °F 100% 29.85 in 0.5 mi ENE 10.4 mph - 0.02 in Fog , Snow Snow
9:52 AM 32.0 °F 23.6 °F 30.9 °F 96% 29.86 in 0.8 mi ENE 10.4 mph - 0.04 in Snow Light Snow
10:52 AM 32.0 °F 24.8 °F 30.9 °F 96% 29.84 in 0.5 mi ENE 8.1 mph - 0.09 in Fog , Snow Light Snow
11:13 AM 32.0 °F 24.2 °F 30.2 °F 93% 29.82 in 0.5 mi ENE 9.2 mph - 0.02 in Fog , Snow Snow
11:37 AM 32.0 °F 24.2 °F 30.2 °F 93% 29.82 in 0.2 mi ENE 9.2 mph - 0.05 in Fog , Snow Snow
11:52 AM 32.0 °F 26.4 °F 32.0 °F 100% 29.84 in 0.2 mi ENE 5.8 mph - 0.07 in Fog , Snow Snow
12:52 PM 32.0 °F 24.2 °F 30.9 °F 96% 29.82 in 0.5 mi ENE 9.2 mph - 0.08 in Fog , Snow Snow
1:52 PM 30.9 °F 22.2 °F 30.0 °F 96% 29.82 in 0.5 mi NE 10.4 mph - 0.05 in Fog , Snow Snow
2:00 PM 30.2 °F 21.3 °F 30.2 °F 100% 29.79 in 0.5 mi NE 10.4 mph - 0.01 in Fog , Snow Light Snow
2:12 PM 30.2 °F 20.8 °F 28.4 °F 93% 29.79 in 1.0 mi ENE 11.5 mph - 0.01 in Snow Light Snow
2:30 PM 30.2 °F 21.3 °F 30.2 °F 100% 29.79 in 0.8 mi NE 10.4 mph - 0.01 in Snow Light Snow
2:52 PM 30.9 °F 23.5 °F 30.0 °F 96% 29.82 in 0.8 mi NE 8.1 mph - 0.02 in Snow Light Snow
3:25 PM 30.2 °F 21.9 °F 28.4 °F 93% 29.80 in 0.5 mi NE 9.2 mph - 0.01 in Fog , Snow Snow
3:46 PM 30.2 °F 19.3 °F 28.4 °F 93% 29.81 in 0.2 mi NNE 15.0 mph - 0.01 in Fog , Snow Snow
3:52 PM 30.0 °F 19.5 °F 28.0 °F 92% 29.83 in 0.2 mi NE 13.8 mph - 0.01 in Fog , Snow Snow
4:27 PM 30.2 °F 19.8 °F 28.4 °F 93% 29.82 in 0.5 mi NNE 13.8 mph - 0.00 in Fog , Snow Snow
4:52 PM 30.0 °F 20.5 °F 28.0 °F 92% 29.85 in 0.5 mi NNE 11.5 mph - 0.01 in Fog , Snow Snow
5:52 PM 28.9 °F 18.2 °F 27.0 °F 92% 29.88 in 1.0 mi North 13.8 mph - 0.00 in Snow Light Snow
6:52 PM 28.9 °F 17.7 °F 27.0 °F 92% 29.91 in 1.5 mi North 15.0 mph - 0.00 in Snow Light Snow
7:18 PM 28.4 °F 16.6 °F 26.6 °F 93% 29.89 in 2.0 mi North 16.1 mph - 0.00 in Snow Light Snow
7:52 PM 28.0 °F 15.7 °F 26.1 °F 92% 29.93 in 2.5 mi NNW 17.3 mph - 0.00 in Snow Light Snow
8:00 PM 28.4 °F 15.4 °F 26.6 °F 93% 29.90 in 2.0 mi NNW 19.6 mph - 0.00 in Snow Light Snow
8:37 PM 26.6 °F 12.7 °F 24.8 °F 93% 29.92 in 1.5 mi NNW 20.7 mph - 0.00 in Snow Light Snow
8:52 PM 27.0 °F 13.9 °F 25.0 °F 92% 29.96 in 1.2 mi NNW 18.4 mph - 0.00 in Snow Light Snow
9:15 PM 26.6 °F 13.4 °F 26.6 °F 100% 29.94 in 1.2 mi NNW 18.4 mph - 0.00 in Snow Light Snow
9:36 PM 26.6 °F 13.1 °F 26.6 °F 100% 29.95 in 1.2 mi NNW 19.6 mph - 0.00 in Snow Light Snow
9:48 PM 28.4 °F 15.8 °F 26.6 °F 93% 29.95 in 1.5 mi NNW 18.4 mph - 0.00 in Snow Light Snow
9:52 PM 27.0 °F 13.9 °F 26.1 °F 96% 29.98 in 1.8 mi NNW 18.4 mph - 0.00 in Snow Light Snow
10:01 PM 26.6 °F 13.8 °F 26.6 °F 100% 29.96 in 2.0 mi NNW 17.3 mph - 0.00 in Snow Light Snow
10:08 PM 26.6 °F 13.4 °F 24.8 °F 93% 29.96 in 1.8 mi NNW 18.4 mph - 0.00 in Snow Light Snow
10:20 PM 26.6 °F 12.4 °F 24.8 °F 93% 29.96 in 2.5 mi NNW 21.9 mph - 0.00 in Snow Light Snow
10:44 PM 26.6 °F 12.7 °F 24.8 °F 93% 29.97 in 4.0 mi NNW 20.7 mph - 0.00 in Snow Light Snow
10:52 PM 27.0 °F 14.3 °F 24.1 °F 89% 30.00 in 8.0 mi NNW 17.3 mph 26.5 mph 0.00 in   Overcast
10:59 PM 26.6 °F 13.1 °F 24.8 °F 93% 29.98 in 10.0 mi NNW 19.6 mph - 0.00 in   Overcast
11:52 PM 27.0 °F 12.5 °F 24.1 °F 89% 30.02 in 10.0 mi NNW 23.0 mph - 0.00 in   Overcast